SWR1LE LSZH-CYUL

Flight info

Callsign SWR1LE
Flight time N/A
Altitude 36000
Route DEGES3W DEGES Z1 ETAGO DCT LIRSU L608 DENUT L610 KOPUL Q63 ICTAM M197 ENHAQ DCT GAJIT DCT BAPHU DCT LESLU/M083F360 DCT EPUNA DCT RODEL/M083F370 NATG NICSO/N0472F400 DCT SATIP Q907 MIILS DCT KEBIG ROCKT3
Aircraft MD11/H-SDE1E2E3FGHIJ2J3J4J5M1RWXY/LB1D1

Departure

Time 2026-05-06 11:31
Airport Zürich Airport (LSZH)

Arrival

Time N/A
Airport Montreal / Pierre Elliott Trudeau International Airport (CYUL)
Time Latitude Longitude Altitude Speed Heading
2026-05-06 11:03 47.45441 8.55749 1420 ft 0 kts 185°
2026-05-06 11:17 47.45453 8.55751 1420 ft 4 kts 188°
2026-05-06 11:17 47.45476 8.55756 1418 ft 4 kts 164°
2026-05-06 11:18 47.45495 8.55745 1416 ft 4 kts 137°
2026-05-06 11:18 47.45509 8.55717 1415 ft 4 kts 104°
2026-05-06 11:18 47.45512 8.55691 1417 ft 1 kts 95°
2026-05-06 11:25 47.45512 8.55700 1418 ft 4 kts 95°
2026-05-06 11:25 47.45506 8.55781 1420 ft 12 kts 96°
2026-05-06 11:26 47.45495 8.55934 1416 ft 17 kts 96°
2026-05-06 11:26 47.45481 8.56126 1415 ft 20 kts 94°
2026-05-06 11:26 47.45520 8.56287 1424 ft 14 kts 56°
2026-05-06 11:26 47.45567 8.56378 1422 ft 10 kts 52°
2026-05-06 11:27 47.45587 8.56452 1422 ft 8 kts 81°
2026-05-06 11:27 47.45590 8.56537 1428 ft 8 kts 92°
2026-05-06 11:27 47.45584 8.56618 1426 ft 8 kts 97°
2026-05-06 11:27 47.45576 8.56717 1428 ft 12 kts 96°
2026-05-06 11:28 47.45567 8.56856 1428 ft 15 kts 95°
2026-05-06 11:28 47.45574 8.56978 1429 ft 8 kts 57°
2026-05-06 11:28 47.45590 8.56997 1430 ft 0 kts 33°
2026-05-06 11:29 47.45593 8.57001 1430 ft 2 kts 30°
2026-05-06 11:29 47.45638 8.57008 1432 ft 9 kts 349°
2026-05-06 11:29 47.45664 8.56967 1432 ft 3 kts 293°
2026-05-06 11:29 47.45668 8.56930 1431 ft 0 kts 277°
2026-05-06 11:30 47.45676 8.56824 1429 ft 43 kts 276°
2026-05-06 11:31 47.45738 8.55947 1418 ft 124 kts 276°
2026-05-06 11:31 47.45848 8.54413 1452 ft 170 kts 276°
2026-05-06 11:31 47.45973 8.52747 2259 ft 157 kts 276°
2026-05-06 11:31 47.46089 8.51176 3175 ft 154 kts 275°
2026-05-06 11:32 47.46215 8.49497 3730 ft 172 kts 273°
2026-05-06 11:32 47.46075 8.47765 4287 ft 179 kts 253°
2026-05-06 11:32 47.45561 8.46083 4854 ft 190 kts 243°
2026-05-06 11:32 47.44936 8.44392 5337 ft 194 kts 241°
2026-05-06 11:33 47.44308 8.42742 6270 ft 187 kts 240°
2026-05-06 11:33 47.43626 8.40997 6721 ft 202 kts 240°
2026-05-06 11:33 47.42831 8.39259 7138 ft 213 kts 223°
2026-05-06 11:33 47.41488 8.38424 7799 ft 211 kts 188°
2026-05-06 11:34 47.40066 8.38684 8649 ft 213 kts 163°
2026-05-06 11:34 47.38811 8.39948 9131 ft 226 kts 133°
2026-05-06 11:34 47.38145 8.42061 9561 ft 236 kts 101°
2026-05-06 11:34 47.38354 8.44472 9799 ft 242 kts 67°
2026-05-06 11:35 47.39344 8.46480 10055 ft 243 kts 45°
2026-05-06 11:35 47.40596 8.48182 10261 ft 246 kts 41°
2026-05-06 11:35 47.41902 8.49789 10651 ft 244 kts 39°
2026-05-06 11:35 47.43235 8.51379 10767 ft 253 kts 39°
2026-05-06 11:36 47.44613 8.52991 11096 ft 251 kts 39°
2026-05-06 11:36 47.45989 8.54589 11336 ft 253 kts 38°
2026-05-06 11:36 47.47384 8.56203 11466 ft 255 kts 40°
2026-05-06 11:36 47.48668 8.58026 11632 ft 256 kts 50°
2026-05-06 11:37 47.49679 8.60100 11723 ft 255 kts 69°
2026-05-06 11:37 47.50014 8.62646 11840 ft 261 kts 98°
2026-05-06 11:37 47.49574 8.65307 12010 ft 276 kts 113°
2026-05-06 11:37 47.48902 8.68107 12154 ft 303 kts 111°
2026-05-06 11:38 47.48265 8.71216 12302 ft 329 kts 108°
2026-05-06 11:38 47.47713 8.74622 12444 ft 353 kts 104°
2026-05-06 11:38 47.47244 8.78255 12709 ft 371 kts 102°
2026-05-06 11:38 47.46813 8.81973 13401 ft 375 kts 104°
2026-05-06 11:39 47.46283 8.85775 14086 ft 379 kts 106°
2026-05-06 11:39 47.45715 8.89594 14739 ft 383 kts 106°
2026-05-06 11:39 47.45151 8.93392 15502 ft 384 kts 106°
2026-05-06 11:39 47.44581 8.97276 16162 ft 389 kts 106°
2026-05-06 11:40 47.44014 9.01180 16809 ft 393 kts 106°
2026-05-06 11:40 47.43439 9.05152 17473 ft 397 kts 106°
2026-05-06 11:40 47.42862 9.09155 18127 ft 402 kts 106°
2026-05-06 11:40 47.42280 9.13231 18663 ft 406 kts 105°
2026-05-06 11:41 47.41905 9.17405 19238 ft 413 kts 96°
2026-05-06 11:41 47.42114 9.21655 19727 ft 424 kts 81°
2026-05-06 11:41 47.43108 9.25742 20235 ft 434 kts 64°
2026-05-06 11:41 47.44859 9.29394 20835 ft 438 kts 48°
2026-05-06 11:42 47.47173 9.32377 21349 ft 444 kts 37°
2026-05-06 11:42 47.49620 9.34928 21879 ft 447 kts 35°
2026-05-06 11:42 47.52178 9.37572 22402 ft 451 kts 36°
2026-05-06 11:42 47.54721 9.40338 22925 ft 454 kts 37°
2026-05-06 11:43 47.57368 9.42945 23452 ft 458 kts 30°
2026-05-06 11:43 47.60273 9.44892 23876 ft 462 kts 17°
2026-05-06 11:43 47.63428 9.45854 24263 ft 465 kts
2026-05-06 11:44 47.69907 9.46179 25071 ft 472 kts 357°
2026-05-06 11:44 47.73184 9.46167 25527 ft 477 kts 357°
2026-05-06 11:44 47.76488 9.46198 25926 ft 481 kts 358°
2026-05-06 11:44 47.79848 9.46267 26318 ft 486 kts 358°
2026-05-06 11:45 47.83246 9.46290 26727 ft 490 kts 357°
2026-05-06 11:45 47.86466 9.46284 27103 ft 493 kts 356°
2026-05-06 11:45 47.89931 9.46266 27486 ft 497 kts 356°
2026-05-06 11:45 47.93403 9.46247 27860 ft 501 kts 356°
2026-05-06 11:46 47.96859 9.46230 28239 ft 505 kts 356°
2026-05-06 11:46 48.00395 9.46217 28606 ft 509 kts 356°
2026-05-06 11:46 48.03955 9.46207 28949 ft 513 kts 356°
2026-05-06 11:46 48.07535 9.46198 29319 ft 516 kts 356°
2026-05-06 11:47 48.11141 9.46190 29701 ft 519 kts 356°
2026-05-06 11:47 48.14722 9.46183 30017 ft 522 kts 356°
2026-05-06 11:47 48.18326 9.46179 30348 ft 525 kts 356°
2026-05-06 11:47 48.21980 9.46181 30746 ft 525 kts 356°
2026-05-06 11:48 48.25638 9.46186 31185 ft 525 kts 356°
2026-05-06 11:48 48.29267 9.46192 31753 ft 521 kts 356°
2026-05-06 11:48 48.32886 9.46198 32216 ft 519 kts 356°
2026-05-06 11:48 48.36496 9.46202 32615 ft 518 kts 356°
2026-05-06 11:49 48.40059 9.46205 33010 ft 517 kts 356°
2026-05-06 11:49 48.43662 9.46207 33385 ft 517 kts 356°
2026-05-06 11:49 48.47226 9.46209 33753 ft 516 kts 356°
2026-05-06 11:49 48.50827 9.46212 34060 ft 516 kts 356°
2026-05-06 11:50 48.54421 9.46200 34345 ft 515 kts 356°
2026-05-06 11:50 48.58010 9.46169 34624 ft 514 kts 356°
2026-05-06 11:50 48.61421 9.46130 34970 ft 514 kts 356°
2026-05-06 11:50 48.65000 9.46086 35336 ft 513 kts 356°
2026-05-06 11:51 48.68575 9.46042 35672 ft 513 kts 356°
2026-05-06 11:51 48.72157 9.45986 35766 ft 516 kts 355°
2026-05-06 11:51 48.79175 9.44777 35788 ft 503 kts 341°
2026-05-06 11:52 48.85480 9.40632 35799 ft 489 kts 321°
2026-05-06 11:52 48.90445 9.34115 35799 ft 477 kts 305°
2026-05-06 11:53 48.94032 9.25879 35798 ft 466 kts 291°
2026-05-06 11:53 48.96665 9.16891 35803 ft 465 kts 288°
2026-05-06 11:54 48.99182 9.07848 35794 ft 465 kts 289°
2026-05-06 11:54 49.01756 8.98891 35793 ft 466 kts 290°
2026-05-06 11:55 49.04369 8.89936 35797 ft 466 kts 290°
2026-05-06 11:55 49.06999 8.80944 35810 ft 467 kts 291°
2026-05-06 11:56 49.10207 8.72254 35800 ft 473 kts 301°
2026-05-06 11:56 49.14185 8.64196 35794 ft 476 kts 304°
2026-05-06 11:57 49.18242 8.56272 35794 ft 476 kts 303°
2026-05-06 11:57 49.22264 8.48233 35783 ft 476 kts 303°
2026-05-06 11:58 49.26259 8.40124 35779 ft 476 kts 303°
2026-05-06 11:58 49.30212 8.32057 35784 ft 476 kts 303°
2026-05-06 11:59 49.34173 8.23952 35792 ft 476 kts 303°
2026-05-06 11:59 49.38143 8.15810 35788 ft 475 kts 303°
2026-05-06 12:00 49.42103 8.07663 35787 ft 476 kts 303°
2026-05-06 12:00 49.46036 7.99546 35781 ft 477 kts 303°
2026-05-06 12:01 49.50005 7.91330 35781 ft 479 kts 303°
2026-05-06 12:01 49.53968 7.83102 35780 ft 479 kts 303°
2026-05-06 12:02 49.57884 7.74945 35784 ft 479 kts 303°
2026-05-06 12:02 49.61797 7.66706 35782 ft 479 kts 302°
2026-05-06 12:03 49.65736 7.58367 35779 ft 481 kts 302°
2026-05-06 12:03 49.69695 7.50020 35775 ft 481 kts 302°
2026-05-06 12:04 49.73614 7.41762 35773 ft 481 kts 302°
2026-05-06 12:04 49.77561 7.33412 35769 ft 479 kts 302°
2026-05-06 12:05 49.81485 7.25084 35789 ft 478 kts 302°
2026-05-06 12:05 49.85382 7.16785 35775 ft 478 kts 303°
2026-05-06 12:06 49.89293 7.08433 35774 ft 479 kts 303°
2026-05-06 12:06 49.93201 7.00059 35774 ft 479 kts 303°
2026-05-06 12:07 49.97105 6.91669 35780 ft 479 kts 303°
2026-05-06 12:07 50.00979 6.83317 35803 ft 479 kts 303°
2026-05-06 12:08 50.04879 6.74880 35788 ft 480 kts 303°
2026-05-06 12:08 50.08769 6.66422 35786 ft 480 kts 302°
2026-05-06 12:09 50.12630 6.57914 35777 ft 480 kts 302°
2026-05-06 12:09 50.16476 6.49473 35772 ft 480 kts 303°
2026-05-06 12:10 50.21093 6.41855 35803 ft 485 kts 317°
2026-05-06 12:10 50.26184 6.35374 35782 ft 486 kts 319°
2026-05-06 12:11 50.31443 6.28781 35782 ft 485 kts 319°
2026-05-06 12:11 50.36662 6.22046 35822 ft 485 kts 318°
2026-05-06 12:12 50.41830 6.15274 35821 ft 485 kts 317°
2026-05-06 12:12 50.46974 6.08503 35836 ft 485 kts 317°
2026-05-06 12:13 50.52147 6.01678 35843 ft 484 kts 318°
2026-05-06 12:13 50.57280 5.94892 35850 ft 479 kts 318°
2026-05-06 12:14 50.62265 5.88067 35851 ft 479 kts 313°
2026-05-06 12:14 50.66136 5.79658 35851 ft 472 kts 293°
2026-05-06 12:15 50.68144 5.69868 35859 ft 469 kts 281°
2026-05-06 12:15 50.69729 5.59899 35865 ft 470 kts 283°
2026-05-06 12:16 50.71542 5.50184 35857 ft 471 kts 285°
2026-05-06 12:16 50.73506 5.40380 35856 ft 471 kts 286°
2026-05-06 12:17 50.75500 5.30500 35858 ft 472 kts 285°
2026-05-06 12:17 50.77467 5.20670 35864 ft 472 kts 285°
2026-05-06 12:18 50.79434 5.10758 35866 ft 472 kts 285°
2026-05-06 12:18 50.81367 5.00818 35872 ft 473 kts 285°
2026-05-06 12:19 50.82934 4.92529 35873 ft 473 kts 285°
2026-05-06 12:19 50.85122 4.80937 35877 ft 473 kts 285°
2026-05-06 12:20 50.86686 4.72653 35877 ft 473 kts 285°
2026-05-06 12:20 50.88564 4.62673 35884 ft 472 kts 285°
2026-05-06 12:21 50.90681 4.52815 35882 ft 474 kts 294°
2026-05-06 12:21 50.93893 4.43796 35886 ft 476 kts 300°
2026-05-06 12:22 50.97420 4.34963 35880 ft 476 kts 300°
2026-05-06 12:22 51.00901 4.26056 35884 ft 476 kts 300°
2026-05-06 12:23 51.04308 4.17126 35885 ft 476 kts 299°
2026-05-06 12:23 51.07705 4.08135 35886 ft 476 kts 299°
2026-05-06 12:24 51.11107 3.99100 35883 ft 476 kts 299°
2026-05-06 12:24 51.14440 3.90224 35890 ft 476 kts 299°
2026-05-06 12:25 51.17744 3.81394 35889 ft 476 kts 299°
2026-05-06 12:25 51.21127 3.72325 35895 ft 475 kts 299°
2026-05-06 12:26 51.24087 3.63032 35894 ft 472 kts 287°
2026-05-06 12:26 51.25613 3.52886 35904 ft 470 kts 279°
2026-05-06 12:27 51.26786 3.42589 35913 ft 471 kts 279°
2026-05-06 12:27 51.28026 3.32317 35925 ft 471 kts 279°
2026-05-06 12:28 51.29317 3.22143 35931 ft 468 kts 280°
2026-05-06 12:28 51.30624 3.11954 35938 ft 467 kts 280°
2026-05-06 12:29 51.31919 3.01803 35941 ft 466 kts 280°
2026-05-06 12:29 51.33200 2.91711 35938 ft 465 kts 279°
2026-05-06 12:30 51.34484 2.81541 35944 ft 467 kts 280°
2026-05-06 12:30 51.35744 2.71363 35940 ft 466 kts 279°
2026-05-06 12:31 51.36957 2.61464 35935 ft 464 kts 282°
2026-05-06 12:31 51.38225 2.51358 35938 ft 467 kts 281°
2026-05-06 12:32 51.39479 2.41188 35946 ft 465 kts 280°
2026-05-06 12:32 51.40725 2.31013 35941 ft 465 kts 282°
2026-05-06 12:33 51.41959 2.20829 35945 ft 465 kts 280°
2026-05-06 12:33 51.43099 2.11451 35941 ft 463 kts 281°
2026-05-06 12:34 51.44363 2.01306 35942 ft 465 kts 282°
2026-05-06 12:34 51.45580 1.91105 35948 ft 465 kts 281°
2026-05-06 12:35 51.46746 1.80917 35947 ft 462 kts 279°
2026-05-06 12:35 51.47863 1.70818 35950 ft 463 kts 281°
2026-05-06 12:36 51.49039 1.60630 35951 ft 463 kts 281°
2026-05-06 12:36 51.50208 1.50465 35949 ft 463 kts 280°
2026-05-06 12:37 51.51352 1.40286 35952 ft 464 kts 281°
2026-05-06 12:37 51.52488 1.30162 35955 ft 463 kts 281°
2026-05-06 12:38 51.53621 1.19985 35955 ft 463 kts 280°
2026-05-06 12:38 51.54354 1.09705 35959 ft 463 kts 272°
2026-05-06 12:39 51.54265 0.99369 35957 ft 462 kts 269°
2026-05-06 12:39 51.54032 0.89122 35966 ft 462 kts 269°
2026-05-06 12:40 51.53848 0.78817 35964 ft 460 kts 269°
2026-05-06 12:40 51.53702 0.68515 35967 ft 462 kts 269°
2026-05-06 12:41 51.53546 0.58368 35964 ft 459 kts 270°
2026-05-06 12:41 51.53390 0.48125 35968 ft 461 kts 269°
2026-05-06 12:42 51.53249 0.37993 35967 ft 458 kts 270°
2026-05-06 12:42 51.53229 0.27741 35989 ft 459 kts 271°
2026-05-06 12:43 51.53277 0.17494 35992 ft 458 kts 271°
2026-05-06 12:43 51.53311 0.07299 35995 ft 460 kts 271°
2026-05-06 12:44 51.53321 -0.02954 36009 ft 458 kts 271°
2026-05-06 12:44 51.53322 -0.13198 35988 ft 458 kts 271°
2026-05-06 12:45 51.53320 -0.23386 35992 ft 458 kts 271°
2026-05-06 12:46 51.53303 -0.38735 35993 ft 459 kts 271°
2026-05-06 12:46 51.53277 -0.48978 35993 ft 457 kts 270°
2026-05-06 12:47 51.53233 -0.59222 35994 ft 459 kts 270°
2026-05-06 12:47 51.53183 -0.69406 35991 ft 458 kts 270°
2026-05-06 12:48 51.53137 -0.79642 35992 ft 459 kts 270°
2026-05-06 12:48 51.53074 -0.89884 35988 ft 457 kts 270°
2026-05-06 12:49 51.52975 -0.99668 35994 ft 458 kts 270°
2026-05-06 12:49 51.52854 -1.09906 35992 ft 457 kts 270°
2026-05-06 12:50 51.52142 -1.19913 35996 ft 458 kts 256°
2026-05-06 12:50 51.50203 -1.29339 35992 ft 457 kts 251°
2026-05-06 12:51 51.48003 -1.38854 35990 ft 457 kts 251°
2026-05-06 12:51 51.45870 -1.48455 35988 ft 457 kts 252°
2026-05-06 12:52 51.43780 -1.58102 35999 ft 457 kts 252°
2026-05-06 12:52 51.41686 -1.67747 35995 ft 457 kts 252°
2026-05-06 12:53 51.39590 -1.77298 36000 ft 457 kts 252°
2026-05-06 12:53 51.37466 -1.86898 36001 ft 457 kts 252°
2026-05-06 12:54 51.35336 -1.96503 36008 ft 457 kts 252°
2026-05-06 12:54 51.33785 -2.06333 36005 ft 455 kts 262°
2026-05-06 12:55 51.32937 -2.16363 36015 ft 456 kts 264°
2026-05-06 12:55 51.32182 -2.25741 36014 ft 456 kts 263°
2026-05-06 12:56 51.31315 -2.35717 36012 ft 456 kts 263°
2026-05-06 12:56 51.30418 -2.45769 36012 ft 457 kts 263°
2026-05-06 12:57 51.29508 -2.55792 36007 ft 457 kts 262°
2026-05-06 12:57 51.28583 -2.65788 36011 ft 457 kts 262°
2026-05-06 12:58 51.27642 -2.75837 36006 ft 457 kts 262°
2026-05-06 12:58 51.26702 -2.85885 36021 ft 457 kts 262°
2026-05-06 12:59 51.25755 -2.95924 36016 ft 456 kts 262°
2026-05-06 12:59 51.24813 -3.05841 36017 ft 456 kts 262°
2026-05-06 13:00 51.23851 -3.15868 36019 ft 456 kts 262°
2026-05-06 13:00 51.22884 -3.25871 36020 ft 456 kts 262°
2026-05-06 13:01 51.21892 -3.35798 36010 ft 456 kts 261°
2026-05-06 13:01 51.20864 -3.45782 36013 ft 455 kts 262°
2026-05-06 13:02 51.19853 -3.55767 36013 ft 455 kts 262°
2026-05-06 13:02 51.18848 -3.65736 36006 ft 455 kts 262°
2026-05-06 13:03 51.17903 -3.75710 36013 ft 455 kts 265°
2026-05-06 13:03 51.17495 -3.85718 36009 ft 454 kts 269°
2026-05-06 13:04 51.17293 -3.95796 36008 ft 455 kts 269°
2026-05-06 13:04 51.17072 -4.05874 36006 ft 455 kts 269°
2026-05-06 13:05 51.16821 -4.15888 36005 ft 455 kts 268°
2026-05-06 13:05 51.16549 -4.25962 36007 ft 455 kts 268°
2026-05-06 13:06 51.16265 -4.36036 36012 ft 455 kts 268°
2026-05-06 13:06 51.15992 -4.45676 36018 ft 455 kts 268°
2026-05-06 13:07 51.15731 -4.54599 36010 ft 455 kts 268°
2026-05-06 13:07 51.15434 -4.64600 36014 ft 455 kts 268°
2026-05-06 13:08 51.15123 -4.74670 36018 ft 455 kts 268°
2026-05-06 13:08 51.14802 -4.84747 36015 ft 455 kts 268°
2026-05-06 13:09 51.14470 -4.94822 36015 ft 455 kts 268°
2026-05-06 13:09 51.14132 -5.04839 36015 ft 455 kts 268°
2026-05-06 13:10 51.13741 -5.14905 36019 ft 455 kts 267°
2026-05-06 13:10 51.13349 -5.24978 36019 ft 455 kts 268°
2026-05-06 13:11 51.13035 -5.33351 36019 ft 455 kts 268°
2026-05-06 13:11 51.12664 -5.43418 36019 ft 455 kts 268°
2026-05-06 13:12 51.12286 -5.53492 36017 ft 455 kts 268°
2026-05-06 13:12 51.11903 -5.63484 36018 ft 454 kts 268°
2026-05-06 13:13 51.11531 -5.73549 36026 ft 455 kts 268°
2026-05-06 13:13 51.11140 -5.83589 36028 ft 455 kts 268°
2026-05-06 13:14 51.10722 -5.93653 36031 ft 455 kts 267°
2026-05-06 13:14 51.10290 -6.03607 36031 ft 455 kts 268°
2026-05-06 13:15 51.09858 -6.13659 36034 ft 455 kts 268°
2026-05-06 13:15 51.09421 -6.23713 36030 ft 455 kts 268°
2026-05-06 13:16 51.08972 -6.33768 36036 ft 455 kts 268°
2026-05-06 13:16 51.08494 -6.43757 36037 ft 455 kts 267°
2026-05-06 13:17 51.07978 -6.53820 36034 ft 455 kts 267°
2026-05-06 13:17 51.07481 -6.63808 36037 ft 455 kts 267°
2026-05-06 13:18 51.06989 -6.73866 36034 ft 456 kts 267°
2026-05-06 13:18 51.06498 -6.83920 36034 ft 456 kts 267°
2026-05-06 13:19 51.05998 -6.93971 36036 ft 456 kts 267°
2026-05-06 13:19 51.05488 -7.03948 36031 ft 456 kts 267°
2026-05-06 13:20 51.04969 -7.13990 36031 ft 456 kts 266°
2026-05-06 13:20 51.04435 -7.24050 36039 ft 457 kts 266°
2026-05-06 13:21 51.03895 -7.34119 36038 ft 457 kts 266°
2026-05-06 13:21 51.03350 -7.44193 36034 ft 457 kts 266°
2026-05-06 13:22 51.02793 -7.54266 36035 ft 457 kts 266°
2026-05-06 13:22 51.02231 -7.64271 36036 ft 458 kts 266°
2026-05-06 13:23 51.01637 -7.74346 36034 ft 458 kts 266°
2026-05-06 13:23 51.01011 -7.84429 36028 ft 458 kts 266°
2026-05-06 13:24 51.00404 -7.94516 36032 ft 458 kts 266°
2026-05-06 13:24 50.99806 -8.04585 36022 ft 458 kts 266°
2026-05-06 13:25 50.99229 -8.14606 36026 ft 459 kts 266°
2026-05-06 13:25 50.98650 -8.24703 36027 ft 459 kts 266°
2026-05-06 13:26 50.98061 -8.34800 36028 ft 459 kts 266°
2026-05-06 13:26 50.97467 -8.44779 36027 ft 459 kts 266°
2026-05-06 13:27 50.96878 -8.54586 36024 ft 459 kts 266°
2026-05-06 13:27 50.96259 -8.64783 36291 ft 462 kts 266°
2026-05-06 13:27 50.95945 -8.69860 36504 ft 462 kts 266°
2026-05-06 13:28 50.95627 -8.74933 36725 ft 462 kts 266°
2026-05-06 13:28 50.95305 -8.80000 36947 ft 462 kts 266°
2026-05-06 13:28 50.94980 -8.85104 37014 ft 465 kts 266°